Miscellaneous Local Product
Issued by NWS North Platte, NE

Home | Current Version | Previous Version | Graphics & Text | Print | Product List | Glossary On
Versions: 1 2 3 4 5 6 7 8 9 10 11 12 13 14 15 16 17 18 19 20 21 22 23 24 25 26 27 28 29 30 31 32 33 34 35 36 37 38 39 40 41 42 43 44 45 46 47 48 49 50
000
AXUS43 KLBF 300610
MISLBF


WESTERN AND NORTH CENTRAL NEBRASKA HOURLY WEATHER ROUNDUP
NATIONAL WEATHER SERVICE NORTH PLATTE NE
100 AM CDT SAT APR 30 2016

NOTE: "FAIR" INDICATES FEW OR NO CLOUDS BELOW 12,000 FEET WITH NO
SIGNIFICANT WEATHER AND/OR OBSTRUCTIONS TO VISIBILITY.

NOTE: STATIONS NOT REPORTING VARIABLES SUCH AS SKY/WEATHER OR
PRESSURE ARE PROVIDED BY RAWS AND APRS NETWORKS AND ARE NOT UNDER
NATIONAL WEATHER SERVICE QUALITY CONTROL.

...OBSERVATIONS IN AND NEAR THE EASTERN PANHANDLE OF NEBRASKA...

CITY           SKY/WX    TMP DP  RH WIND       PRES   REMARKS
PINE RIDGE     LGT RAIN  37  35  92 NE12      29.98S FOG     WCI  29
CHADRON        LGT RAIN  37  35  92 NE14      29.98F WCI  28
ALLIANCE       LGT SNOW  32  32 100 N9        29.91F VSB 3/4 WCI  24
SIDNEY         LGT SNOW  32  31  96 N9        29.90S VSB 3/4 WCI  24
CRESCENT LAKE    N/A     32  28  84 N6          N/A  WCI  26
BIG SPRINGS      N/A     34  32  93 CALM        N/A
$$

...OBSERVATIONS IN NORTHERN NEBRASKA AND FAR SOUTHERN SOUTH DAKOTA...

CITY           SKY/WX    TMP DP  RH WIND       PRES   REMARKS
WINNER         CLOUDY    43  39  86 N7        30.00F
VALENTINE      CLOUDY    39  37  92 NE13      29.97F WCI  31
THEDFORD       LGT RAIN  38  38  97 NE12G17   29.90F WCI  31
AINSWORTH      LGT RAIN  40  38  95 NE15G24   29.94F WCI  31
O`NEILL        CLOUDY    42  40  89 NE20      29.95F
ORD            LGT RAIN  41  39  93 NE18G30   29.87F
BROKEN BOW     RAIN      40  38  93 NE15G21   29.85S FOG     WCI  32
VALENTINE NWR    N/A     38  37  98 NE15G22     N/A  WCI  29
BUTTE            N/A     41  39  94 NE12        N/A
HALSEY           N/A     38  38  99 NE8G15      N/A  WCI  32
CHAMBERS         N/A     41  40  95 E12G20      N/A
EWING            N/A     42  40  93 NE18G30     N/A
$$

...OBSERVATIONS IN SOUTHWEST NEBRASKA AND FAR NORTHEAST COLORADO...

CITY           SKY/WX    TMP DP  RH WIND       PRES   REMARKS
IMPERIAL       LGT SNOW  33  32  96 N8        29.86S FOG     WCI  26
OGALLALA       LGT SNOW  33  32  96 NE10      29.88R WCI  25
NORTH PLATTE   LGT SNOW  33  32  96 NE7       29.88F FOG     WCI  27
MCCOOK         CLOUDY    38  35  89 NE13      29.83F WCI  30
LEXINGTON      RAIN      41  38  92 NE9       29.85F
PAXTON           N/A     33  31  94 N9          N/A  WCI  25
STAPLETON        N/A     34  33  96 CALM        N/A
GOTHENBURG       N/A     40  37  90 E3          N/A
CALLAWAY         N/A     38  37  96 E7          N/A  WCI  33
$$

...OBSERVATIONS IN CENTRAL LINCOLN COUNTY AREA...

CITY           SKY/WX    TMP DP  RH WIND       PRES   REMARKS
N.P. AIRPORT   LGT SNOW  33  32  96 NE7       29.88F FOG     WCI  27
N.P. DOWNTOWN    N/A     32  32 100 NE3         N/A
N.P. SOUTHEAST   N/A     32  31  97 CALM        N/A
N.P. HILLCREST   N/A     34  32  93 E3          N/A
$$

...SOME OBSERVATIONS FROM AROUND THE REGION...

CITY           SKY/WX    TMP DP  RH WIND       PRES   REMARKS
DENVER         LGT SNOW  32  29  88 N6        29.89F VSB 1   WCI  26
LARAMIE        LGT SNOW  27  26  96 NE7       29.88S FOG     WCI  19
CHEYENNE       LGT SNOW  30  29  96 N9        29.88F FOG     WCI  22
SCOTTSBLUFF    LGT SNOW  33  32  96 N5        29.93F FOG     WCI  29
RAPID CITY     CLOUDY    40  37  89 N6        30.04F
BISMARCK       CLEAR     42  34  73 NE9       30.13S
PIERRE         CLOUDY    41  38  89 NE9       30.04S
SIOUX FALLS    CLOUDY    44  39  82 E6        30.06R
OMAHA          LGT RAIN  47  43  86 NE14      29.90F
GRAND ISLAND   RAIN      42  40  92 NE21      29.82F FOG
KANSAS CITY    CLOUDY    52  50  93 NE15      29.73F FOG
WICHITA        CLOUDY    55  53  93 W9        29.68R FOG
OKLAHOMA CITY  CLOUDY    54  53  97 NW14      29.69R FOG
DALLAS         MOCLDY    69  63  81 NW16      29.62R
AMARILLO       CLOUDY    42  39  89 N16       29.81S
DODGE CITY     CLOUDY    39  38  96 NW12      29.78F WCI  32
HAYS           CLOUDY    45  36  70 N13       29.76F
GOODLAND       CLOUDY    32  31  96 NW13      29.83F FOG     WCI  22
$$




USA.gov is the U.S. government's official web portal to all federal, state and local government web resources and services.